Rochester, NH

8:00 PM EDT on April 29, 2017 (GMT -0400)
Skyhaven

Weather History for KDAW - March, 2012

Change the Weather History Date:

Wednesday, March 21, 2012

  Actual Average (KPSM) Record (KPSM)
Temperature  
Mean Temperature 70 °F -  
Max Temperature 84 °F 41 °F 82 °F (2012)
Min Temperature 55 °F 26 °F 7 °F (1986)
Cooling Degree Days 4    
Growing Degree Days 20 (Base 50)    
Moisture  
Dew Point 49 °F    
Average Humidity 55    
Maximum Humidity 84    
Minimum Humidity 21    
Precipitation  
Precipitation 0.00 in - - ()
Sea Level Pressure  
Sea Level Pressure 30.22 in    
Wind  
Wind Speed 1 mph (SW)    
Max Wind Speed 6 mph    
Max Gust Speed -    
Visibility 10 miles    
Events      
Averages and records for this station are not official NWS values.
T = Trace of Precipitation, MM = Missing Value Source: NWS Daily Summary

Daily Weather History Graph

Daily Weather History Graph

Search for Another Location

Airport or City:

Trip Planner

Search our weather history database for the weather conditions in past years. The results will help you decide how hot, cold, wet, or windy it might be!

Date:

Astronomy

Mar. 21, 2012 Rise Set
Actual Time 6:44 AM EDT 6:57 PM EDT
Civil Twilight 6:15 AM EDT 7:26 PM EDT
Nautical Twilight 5:42 AM EDT 7:59 PM EDT
Astronomical Twilight 5:08 AM EDT 8:34 PM EDT
Moon 5:54 AM EDT (3/21) 6:21 PM EDT (3/21)
Length of Visible Light 13h 10m
Length of Day
12h 13m
Waning Crescent, 1% of the Moon is Illuminated
Mar 21
Waning Crescent
Mar 22
New
Mar 30
First Quarter
Apr 6
Full
Apr 13
Last Quarter

Hourly Weather History & Observations

Time (EDT) Temp. Dew Point Humidity Pressure Visibility Wind Dir Wind Speed Gust Speed Precip Events Conditions
12:51 AM 62.1 °F 51.1 °F 67% 30.24 in 10.0 mi Calm Calm - N/A   Clear
1:51 AM 63.0 °F 52.0 °F 67% 30.25 in 10.0 mi Calm Calm - N/A   Clear
2:51 AM 59.0 °F 51.1 °F 75% 30.24 in 10.0 mi Calm Calm - N/A   Clear
3:51 AM 59.0 °F 51.1 °F 75% 30.24 in 10.0 mi Calm Calm - N/A   Clear
4:51 AM 57.0 °F 51.1 °F 81% 30.24 in 10.0 mi SW 3.5 mph - N/A   Clear
5:51 AM 55.9 °F 51.1 °F 84% 30.25 in 10.0 mi Calm Calm - N/A   Clear
6:51 AM 57.9 °F 50.0 °F 75% 30.26 in 10.0 mi Calm Calm - N/A   Clear
7:51 AM 57.0 °F 51.1 °F 81% 30.28 in 10.0 mi Calm Calm - N/A   Clear
8:51 AM 64.0 °F 52.0 °F 65% 30.29 in 10.0 mi Calm Calm - N/A   Clear
9:51 AM 69.1 °F 52.0 °F 54% 30.29 in 10.0 mi Variable 3.5 mph - N/A   Clear
11:51 AM 79.0 °F 48.0 °F 34% 30.26 in 10.0 mi Variable 5.8 mph - N/A   Clear
1:51 PM 82.0 °F 46.9 °F 29% 30.22 in 10.0 mi Variable 4.6 mph - N/A   Clear
2:51 PM 82.9 °F 46.0 °F 27% 30.19 in 10.0 mi Variable 3.5 mph - N/A   Clear
3:51 PM 84.0 °F 46.0 °F 26% 30.17 in 10.0 mi Variable 4.6 mph - N/A   Clear
4:51 PM 82.0 °F 42.1 °F 24% 30.16 in 10.0 mi Variable 3.5 mph - N/A   Clear
5:51 PM 80.1 °F 37.0 °F 21% 30.17 in 10.0 mi Variable 4.6 mph - N/A   Clear
6:51 PM 75.9 °F 45.0 °F 33% 30.17 in 10.0 mi Calm Calm - N/A   Clear
7:51 PM 72.0 °F 50.0 °F 46% 30.19 in 10.0 mi Calm Calm - N/A   Clear
8:51 PM 69.1 °F 51.1 °F 53% 30.19 in 10.0 mi Calm Calm - N/A   Clear
9:51 PM 66.9 °F 51.1 °F 57% 30.20 in 10.0 mi Variable 3.5 mph - N/A   Clear
10:51 PM 66.0 °F 53.1 °F 63% 30.19 in 10.0 mi Calm Calm - N/A   Clear
11:51 PM 63.0 °F 53.1 °F 70% 30.18 in 10.0 mi Calm Calm - N/A   Clear